Location: Newark
(58.6000°N, 7.8338°E)
Time: 08:12:03
(UTC+00:00)

OTV 5 (USA 277) - Pass Details

Date: 27 August 2019
Orbit: 295 x 339 km, 54.5° (Epoch: 08 September)

Event Time Altitude Azimuth Distance (km) Brightness Sun altitude
Rises 20:12:40 0° 230° (SW) 1,996 ? -10.8°
Reaches altitude 10° 20:14:50 10° 214° (SSW) 1,169 ? -11.0°
Maximum altitude 20:16:54 21° 161° (SSE) 740 ? -11.2°
Enters shadow 20:17:08 21° 152° (SSE) 747 ? -11.2°
